Location: *
(33.8649°S, 62.1526°E)
Time: 23:41:23
(UTC+00:00)

Cosmos 2369 Rocket - Pass Details

Date: 18 May 2021
Orbit: 827 x 854 km, 71.0° (Epoch: 21 June)

Event Time Altitude Azimuth Distance (km) Brightness Sun altitude
Rises 14:52:33 0° 191° (SSW) 3,405 5.4 -23.9°
Reaches altitude 10° 14:55:14 10° 182° (S) 2,462 4.5 -24.5°
Enters shadow 14:56:45 17° 173° (S) 1,984 4.0 -24.8°
